TimeMDT,TemperatureF,Dew PointF,Humidity,Sea Level PressureIn,VisibilityMPH,Wind Direction,Wind SpeedMPH,Gust SpeedMPH,PrecipitationIn,Events,Conditions,WindDirDegrees,DateUTC
12:53 AM,28.9,24.1,82,29.54,10.0,ESE,6.9,-,N/A,,Scattered Clouds,120,2013-04-14 06:53:00
1:53 AM,27.0,23.0,85,29.56,10.0,SSE,6.9,-,N/A,,Mostly Cloudy,150,2013-04-14 07:53:00
2:39 AM,26.6,23.0,86,29.58,10.0,ESE,8.1,-,N/A,,Mostly Cloudy,120,2013-04-14 08:39:00
2:51 AM,28.4,23.0,80,29.58,10.0,ESE,9.2,-,N/A,,Overcast,110,2013-04-14 08:51:00
2:53 AM,27.0,23.0,85,29.58,10.0,ESE,9.2,-,N/A,,Overcast,120,2013-04-14 08:53:00
3:39 AM,26.6,24.8,93,29.58,10.0,East,12.7,-,N/A,,Overcast,90,2013-04-14 09:39:00
3:53 AM,27.0,24.1,89,29.57,10.0,East,9.2,-,N/A,,Overcast,90,2013-04-14 09:53:00
4:05 AM,26.6,24.8,93,29.59,10.0,ESE,5.8,-,N/A,,Overcast,120,2013-04-14 10:05:00
4:43 AM,26.6,23.0,86,29.60,3.0,ESE,4.6,-,0.00,Snow,Light Snow,110,2013-04-14 10:43:00
4:53 AM,26.1,23.0,88,29.60,4.0,SE,5.8,-,0.00,Snow,Light Snow,140,2013-04-14 10:53:00
5:07 AM,24.8,23.0,93,29.61,7.0,East,4.6,-,0.00,,Overcast,100,2013-04-14 11:07:00
5:53 AM,24.1,21.9,91,29.65,10.0,Calm,Calm,-,0.00,,Mostly Cloudy,0,2013-04-14 11:53:00
6:06 AM,24.8,21.2,86,29.62,10.0,SSW,3.5,-,N/A,,Scattered Clouds,200,2013-04-14 12:06:00
6:53 AM,23.0,18.0,81,29.66,10.0,West,3.5,-,N/A,,Clear,280,2013-04-14 12:53:00
7:53 AM,25.0,18.0,75,29.67,10.0,Calm,Calm,-,N/A,,Clear,0,2013-04-14 13:53:00
8:53 AM,30.0,15.1,54,29.67,10.0,West,4.6,-,N/A,,Clear,270,2013-04-14 14:53:00
9:53 AM,34.0,14.0,44,29.65,10.0,NNW,9.2,-,N/A,,Clear,330,2013-04-14 15:53:00
10:14 AM,35.6,5.0,28,29.65,10.0,NW,15.0,-,N/A,,Clear,310,2013-04-14 16:14:00
10:53 AM,37.9,3.9,24,29.65,10.0,NW,17.3,26.5,N/A,,Mostly Cloudy,320,2013-04-14 16:53:00
11:53 AM,37.0,1.9,23,29.67,10.0,NW,15.0,26.5,N/A,,Overcast,310,2013-04-14 17:53:00
12:53 PM,41.0,3.9,21,29.67,10.0,NW,18.4,29.9,N/A,,Overcast,320,2013-04-14 18:53:00
1:53 PM,39.0,1.0,20,29.69,10.0,NW,16.1,26.5,N/A,,Overcast,310,2013-04-14 19:53:00
2:53 PM,39.0,1.9,21,29.69,10.0,West,11.5,-,N/A,,Overcast,280,2013-04-14 20:53:00
3:05 PM,39.2,3.2,22,29.66,10.0,NW,12.7,31.1,N/A,,Overcast,320,2013-04-14 21:05:00
3:53 PM,42.1,3.9,21,29.67,10.0,NNW,13.8,29.9,N/A,,Overcast,340,2013-04-14 21:53:00
4:53 PM,41.0,1.9,20,29.68,10.0,West,10.4,27.6,N/A,,Partly Cloudy,270,2013-04-14 22:53:00
5:53 PM,41.0,-2.9,16,29.68,10.0,WNW,6.9,-,N/A,,Clear,300,2013-04-14 23:53:00
6:53 PM,39.9,1.0,20,29.72,10.0,NW,8.1,-,N/A,,Clear,310,2013-04-15 00:53:00
7:53 PM,33.1,21.0,61,29.77,10.0,NE,17.3,24.2,N/A,,Mostly Cloudy,40,2013-04-15 01:53:00
8:53 PM,28.9,21.9,75,29.82,10.0,SE,3.5,-,N/A,,Clear,140,2013-04-15 02:53:00
9:53 PM,28.9,21.0,72,29.81,10.0,North,3.5,-,N/A,,Clear,350,2013-04-15 03:53:00
10:29 PM,28.4,21.2,74,29.76,10.0,North,4.6,-,N/A,,Mostly Cloudy,10,2013-04-15 04:29:00
10:53 PM,28.9,21.9,75,29.78,10.0,North,3.5,-,N/A,,Overcast,10,2013-04-15 04:53:00
11:27 PM,28.4,21.2,74,29.75,10.0,Calm,Calm,-,N/A,,Overcast,0,2013-04-15 05:27:00
11:53 PM,28.9,21.9,75,29.78,10.0,Calm,Calm,-,N/A,,Overcast,0,2013-04-15 05:53:00